Regional Weather Roundup
Issued by NWS

Home | Current Version | Previous Version | Graphics & Text | Print | Product List | Glossary Off
Versions: 1 2 3 4 5 6 7 8 9 10 11 12 13 14 15 16 17 18 19 20 21 22 23 24 25 26 27 28 29 30 31 32 33 34 35 36 37 38 39 40 41 42 43 44 45 46 47 48 49 50

853
ASUS43 KLSX 260707
RWRMO

WEATHER SUMMARY FOR MISSOURI
NATIONAL WEATHER SERVICE SPRINGFIELD MO
200 AM CDT SAT MAY 26 2018

NOTE: "FAIR" INDICATES FEW OR NO CLOUDS BELOW 12,000 FEET WITH NO
       SIGNIFICANT WEATHER AND/OR OBSTRUCTIONS TO VISIBILITY.
       CURRENT SKY AND/OR WEATHER CONDITIONS ARE NOT AVAILABLE FOR
       CHILLICOTHE AND FARMINGTON.

MOZ001>031-035>038-043-044-053-054-260800-
...NORTHERN AND WESTERN MISSOURI...

CITY           SKY/WX    TMP DP  RH WIND       PRES   REMARKS
KANSAS CTY INT CLEAR     70  67  90 SW8       29.81R
KANSAS C DTWN  CLEAR     74  65  73 S7        29.79S
LEE`S SUMMIT   CLEAR     72  68  87 S7        29.82S
ST JOSEPH      CLEAR     71  67  87 S6        29.78S
CHILLICOTHE      N/A     69  67  93 S5        29.80F
KIRKSVILLE     CLEAR     70  68  93 SW5       29.81S

$$
MOZ066>068-077>081-088>096-101>105-260800-
...SOUTHWEST MISSOURI...

CITY           SKY/WX    TMP DP  RH WIND       PRES   REMARKS
SPRINGFIELD    MOCLDY    67  64  90 S9        29.87F
JOPLIN         CLEAR     69  65  86 SE5       29.86F
BRANSON        PTCLDY    64  64 100 CALM      29.89F

$$
MOZ032>034-039>042-045>050-055>058-069>072-260800-
...CENTRAL MISSOURI...

CITY           SKY/WX    TMP DP  RH WIND       PRES   REMARKS
COLUMBIA       CLOUDY    69  66  90 SW6       29.82F
JEFFERSON CITY CLOUDY    70  68  93 E5        29.81F
ROLLA          CLOUDY    67  64  90 SW9       29.86F
SEDALIA        CLOUDY    71  68  90 SW7       29.84S
WHITEMAN AFB   CLOUDY    68  67  94 SW8       29.79S
WARRENSBURG    CLOUDY    70  66  88 S6        29.83S
OSAGE BEACH    MOCLDY    66  65  96 SE5       29.85F

$$
MOZ051-052-059>065-260800-
...EAST CENTRAL MISSOURI...

CITY           SKY/WX    TMP DP  RH WIND       PRES   REMARKS
ST LOUIS INTL  CLOUDY    73  68  84 SW6       29.83F
SPIRIT OF STL  CLOUDY    70  69  97 CALM      29.81F
ST CHARLES     CLOUDY    74  70  87 CALM      29.81F

$$
MOZ072>076-082>087-097>100-106>115-260800-
...SOUTH CENTRAL AND SOUTHEAST MISSOURI...

CITY           SKY/WX    TMP DP  RH WIND       PRES   REMARKS
CAPE GIRARDEAU FAIR      70  68  93 S3        29.85F
FARMINGTON     PTCLDY    67  66  97 CALM      29.85F
POPLAR BLUFF   FAIR      70  70 100 SE5       29.85F
WEST PLAINS    CLOUDY    67  64  90 W3        29.89F

$$




USA.gov is the U.S. government's official web portal to all federal, state and local government web resources and services.